Hourly Weather Arbuzinka

Today, 1 August, Sunday

Time Temperature Precipitation Wind Pressure Humidity
00:00 +25°C° 0 mm 2 mps 748 mmHg 55%
01:00 +25°C° 0 mm 2 mps 748 mmHg 59%
02:00 +24°C° 0 mm 2 mps 748 mmHg 65%
03:00 +24°C° 0 mm 2 mps 748 mmHg 65%
04:00 +24°C° 0 mm 2 mps 748 mmHg 66%
05:00 +24°C° 0 mm 2 mps 748 mmHg 66%
06:00 +26°C° 0 mm 2 mps 748 mmHg 60%
07:00 +27°C° 0 mm 3 mps 748 mmHg 54%
08:00 +29°C° 0 mm 4 mps 748 mmHg 48%
09:00 +32°C° 0 mm 4 mps 748 mmHg 43%
10:00 +33°C° 0 mm 5 mps 748 mmHg 38%
11:00 +35°C° 0 mm 5 mps 748 mmHg 34%
12:00 +36°C° 0 mm 5 mps 748 mmHg 33%
13:00 +36°C° 0 mm 5 mps 747 mmHg 32%
14:00 +37°C° 0 mm 5 mps 747 mmHg 31%
15:00 +37°C° 0 mm 5 mps 747 mmHg 32%
16:00 +36°C° 0 mm 5 mps 747 mmHg 33%
17:00 +36°C° 0 mm 5 mps 746 mmHg 34%
18:00 +34°C° 0.1 mm 5 mps 747 mmHg 39%
19:00 +32°C° 0.1 mm 5 mps 747 mmHg 45%
20:00 +29°C° 0.1 mm 5 mps 747 mmHg 51%
21:00 +28°C° 0 mm 4 mps 747 mmHg 55%
22:00 +27°C° 0 mm 4 mps 747 mmHg 59%
23:00 +25°C° 0 mm 3 mps 747 mmHg 63%

Tomorrow, 2 August, Monday

Time Temperature Precipitation Wind Pressure Humidity
00:00 +25°C° 0 mm 3 mps 747 mmHg 65%
01:00 +25°C° 0 mm 3 mps 747 mmHg 68%
02:00 +24°C° 0 mm 3 mps 747 mmHg 70%
03:00 +24°C° 0 mm 3 mps 747 mmHg 72%
04:00 +24°C° 0 mm 3 mps 747 mmHg 74%
05:00 +24°C° 0 mm 3 mps 747 mmHg 77%
06:00 +26°C° 0 mm 4 mps 747 mmHg 68%
07:00 +28°C° 0 mm 6 mps 747 mmHg 60%
08:00 +30°C° 0 mm 7 mps 746 mmHg 52%
09:00 +33°C° 0 mm 7 mps 746 mmHg 46%
10:00 +35°C° 0 mm 7 mps 746 mmHg 41%
11:00 +38°C° 0 mm 7 mps 746 mmHg 35%
12:00 +38°C° 0 mm 7 mps 746 mmHg 33%
13:00 +38°C° 0 mm 8 mps 746 mmHg 32%
14:00 +39°C° 0 mm 8 mps 745 mmHg 31%
15:00 +38°C° 0 mm 8 mps 745 mmHg 34%
16:00 +37°C° 0 mm 8 mps 745 mmHg 37%
17:00 +35°C° 0 mm 8 mps 744 mmHg 40%
18:00 +32°C° 0.7 mm 7 mps 744 mmHg 51%
19:00 +28°C° 0.7 mm 6 mps 745 mmHg 63%
20:00 +26°C° 0.7 mm 5 mps 745 mmHg 75%
21:00 +25°C° 0 mm 4 mps 746 mmHg 79%
22:00 +23°C° 0 mm 4 mps 746 mmHg 84%
23:00 +22°C° 0 mm 3 mps 747 mmHg 89%

Day after tomorrow, 3 August, Tuesday

Time Temperature Precipitation Wind Pressure Humidity
00:00 +22°C° 0 mm 3 mps 747 mmHg 89%
01:00 +21°C° 0 mm 4 mps 747 mmHg 90%
02:00 +21°C° 0 mm 4 mps 747 mmHg 91%
03:00 +20°C° 0 mm 4 mps 748 mmHg 90%
04:00 +20°C° 0 mm 4 mps 748 mmHg 89%
05:00 +19°C° 0 mm 4 mps 749 mmHg 88%
06:00 +20°C° 0 mm 5 mps 749 mmHg 80%
07:00 +21°C° 0 mm 5 mps 749 mmHg 71%
08:00 +22°C° 0 mm 5 mps 750 mmHg 63%
09:00 +23°C° 0 mm 5 mps 750 mmHg 57%
10:00 +26°C° 0 mm 5 mps 750 mmHg 51%
11:00 +27°C° 0 mm 5 mps 751 mmHg 45%
12:00 +28°C° 0 mm 5 mps 750 mmHg 42%
13:00 +29°C° 0 mm 5 mps 750 mmHg 40%
14:00 +29°C° 0 mm 4 mps 750 mmHg 38%
15:00 +29°C° 0 mm 4 mps 750 mmHg 38%
16:00 +29°C° 0 mm 4 mps 750 mmHg 37%
17:00 +29°C° 0 mm 4 mps 750 mmHg 37%
18:00 +28°C° 0 mm 3 mps 751 mmHg 41%
19:00 +26°C° 0 mm 3 mps 751 mmHg 45%
20:00 +25°C° 0 mm 3 mps 751 mmHg 50%
21:00 +24°C° 0 mm 3 mps 752 mmHg 50%
22:00 +24°C° 0 mm 2 mps 752 mmHg 51%
23:00 +24°C° 0 mm 2 mps 752 mmHg 51%

4 August, Wednesday

Time Temperature Precipitation Wind Pressure Humidity
00:00 +23°C° 0 mm 2 mps 752 mmHg 55%
01:00 +21°C° 0 mm 2 mps 752 mmHg 58%
02:00 +20°C° 0 mm 2 mps 752 mmHg 61%
03:00 +19°C° 0 mm 2 mps 752 mmHg 62%
04:00 +19°C° 0 mm 2 mps 752 mmHg 63%
05:00 +18°C° 0 mm 2 mps 753 mmHg 64%
06:00 +21°C° 0 mm 1 mps 753 mmHg 58%
07:00 +23°C° 0 mm 1 mps 753 mmHg 52%
08:00 +25°C° 0 mm 1 mps 753 mmHg 46%
09:00 +27°C° 0 mm 1 mps 753 mmHg 42%
10:00 +28°C° 0 mm 1 mps 753 mmHg 38%
11:00 +30°C° 0 mm 1 mps 753 mmHg 34%
12:00 +30°C° 0 mm 1 mps 753 mmHg 32%
13:00 +31°C° 0 mm 1 mps 752 mmHg 31%
14:00 +32°C° 0 mm 1 mps 752 mmHg 30%
15:00 +32°C° 0 mm 1 mps 752 mmHg 30%
16:00 +32°C° 0 mm 1 mps 752 mmHg 30%
17:00 +31°C° 0 mm 1 mps 751 mmHg 31%
18:00 +30°C° 0 mm 1 mps 751 mmHg 34%
19:00 +29°C° 0 mm 1 mps 752 mmHg 38%
20:00 +27°C° 0 mm 1 mps 752 mmHg 41%
21:00 +27°C° 0 mm 1 mps 752 mmHg 44%
22:00 +26°C° 0 mm 1 mps 752 mmHg 46%
23:00 +26°C° 0 mm 1 mps 752 mmHg 48%

5 August, Thursday

Time Temperature Precipitation Wind Pressure Humidity
00:00 +25°C° 0 mm 1 mps 752 mmHg 50%
01:00 +24°C° 0 mm 1 mps 752 mmHg 53%
02:00 +23°C° 0 mm 1 mps 752 mmHg 55%
03:00 +23°C° 0 mm 1 mps 752 mmHg 57%
04:00 +23°C° 0 mm 1 mps 751 mmHg 59%
05:00 +22°C° 0 mm 1 mps 751 mmHg 61%
06:00 +24°C° 0 mm 2 mps 751 mmHg 54%
07:00 +26°C° 0 mm 2 mps 752 mmHg 47%
08:00 +28°C° 0 mm 3 mps 752 mmHg 40%
09:00 +30°C° 0 mm 4 mps 751 mmHg 37%
10:00 +32°C° 0 mm 5 mps 751 mmHg 33%
11:00 +34°C° 0 mm 5 mps 751 mmHg 29%
12:00 +34°C° 0 mm 5 mps 750 mmHg 28%
13:00 +35°C° 0 mm 5 mps 750 mmHg 27%
14:00 +35°C° 0 mm 5 mps 750 mmHg 26%
15:00 +35°C° 0 mm 5 mps 749 mmHg 26%
16:00 +35°C° 0 mm 4 mps 749 mmHg 27%
17:00 +35°C° 0 mm 4 mps 749 mmHg 28%
18:00 +32°C° 0 mm 4 mps 749 mmHg 32%
19:00 +29°C° 0 mm 3 mps 748 mmHg 37%
20:00 +27°C° 0 mm 3 mps 748 mmHg 42%
21:00 +26°C° 0 mm 3 mps 748 mmHg 44%
22:00 +25°C° 0 mm 3 mps 748 mmHg 46%
23:00 +24°C° 0 mm 3 mps 748 mmHg 48%

6 August, Friday

Time Temperature Precipitation Wind Pressure Humidity
00:00 +24°C° 0 mm 3 mps 748 mmHg 48%
01:00 +23°C° 0 mm 2 mps 748 mmHg 49%
02:00 +23°C° 0 mm 2 mps 748 mmHg 50%
03:00 +23°C° 0 mm 2 mps 748 mmHg 52%
04:00 +21°C° 0 mm 2 mps 748 mmHg 54%
05:00 +22°C° 0 mm 1 mps 747 mmHg 56%
06:00 +24°C° 0 mm 2 mps 747 mmHg 51%
07:00 +26°C° 0 mm 3 mps 747 mmHg 46%
08:00 +29°C° 0 mm 4 mps 747 mmHg 40%
09:00 +30°C° 0 mm 4 mps 747 mmHg 35%
10:00 +33°C° 0 mm 5 mps 746 mmHg 30%
11:00 +35°C° 0 mm 5 mps 746 mmHg 25%
12:00 +36°C° 0 mm 5 mps 746 mmHg 26%
13:00 +36°C° 0 mm 4 mps 746 mmHg 27%
14:00 +37°C° 0 mm 4 mps 745 mmHg 28%
15:00 +34°C° 1.2 mm 5 mps 745 mmHg 42%
16:00 +29°C° 1.2 mm 7 mps 745 mmHg 56%
17:00 +26°C° 1.2 mm 8 mps 745 mmHg 70%
18:00 +26°C° 0.7 mm 6 mps 745 mmHg 68%
19:00 +26°C° 0.7 mm 4 mps 745 mmHg 66%
20:00 +26°C° 0.7 mm 2 mps 745 mmHg 64%
21:00 +25°C° 0.4 mm 2 mps 745 mmHg 68%
22:00 +24°C° 0.4 mm 3 mps 746 mmHg 72%
23:00 +24°C° 0.4 mm 3 mps 746 mmHg 75%
Show more